Weather History for Quakertown, PA

Change the Weather History Date:

Saturday, March 23, 2013

  Actual Average (KABE) Record (KABE)
Temperature  
Mean Temperature 37 °F 42 °F  
Max Temperature 44 °F 52 °F 80 °F (2012)
Min Temperature 30 °F 31 °F 13 °F (1934)
Degree Days  
Heating Degree Days 28 24  
Month to date heating degree days 629  
Since 1 July heating degree days 4938  
Cooling Degree Days 0 0  
Month to date cooling degree days 0  
Year to date cooling degree days 0  
Moisture  
Dew Point 18 °F    
Average Humidity 48    
Maximum Humidity 60    
Minimum Humidity 34    
Precipitation  
Precipitation 0.00 in 0.11 in 1.12 in (2005)
Month to date precipitation 2.44  
Year to date precipitation 8.17  
Snow  
Snow 0.00 in 0.10 in 2.50 in (1896)
Month to date snowfall 4.1  
Since 1 July snowfall 31.1  
Snow Depth -    
Sea Level Pressure  
Sea Level Pressure 29.91 in    
Wind  
Wind Speed 7 mph (WSW)    
Max Wind Speed 14 mph    
Max Gust Speed 22 mph    
Visibility 10 miles    
Events      
T = Trace of Precipitation, MM = Missing Value Source: NWS Daily Summary

Daily Weather History Graph

Daily Weather History Graph

Search for Another Location

Airport:

Trip Planner

Search our weather history database for the weather conditions in past years. The results will help you decide how hot, cold, wet, or windy it might be!

Date:

Astronomy

Mar. 23, 2013 Rise Set
Actual Time 6:59 AM EDT 7:16 PM EDT
Civil Twilight 6:32 AM EDT 7:44 PM EDT
Nautical Twilight 6:00 AM EDT 8:16 PM EDT
Astronomical Twilight 5:27 AM EDT 8:49 PM EDT
Moon 3:40 PM EDT (3/23) 4:35 AM EDT (3/23)
Length of Visible Light 13h 11m
Length of Day
12h 17m
Waxing Gibbous, 85% of the Moon is Illuminated
Mar 23
Waxing Gibbous
Mar 27
Full
Apr 3
Last Quarter
Apr 10
New
Apr 18
First Quarter

Hourly Weather History & Observations

Time (EDT) Temp. Windchill Dew Point Humidity Pressure Visibility Wind Dir Wind Speed Gust Speed Precip Events Conditions
12:10 AM 32.0 °F 27.5 °F 17.6 °F 55% 29.92 in 10.0 mi WSW 4.6 mph - N/A   Clear
12:30 AM 32.0 °F 26.4 °F 17.6 °F 55% 29.93 in 10.0 mi SW 5.8 mph - N/A   Clear
12:50 AM 32.0 °F 25.6 °F 19.4 °F 60% 29.93 in 10.0 mi SW 6.9 mph - N/A   Clear
1:10 AM 32.0 °F 27.5 °F 19.4 °F 60% 29.94 in 10.0 mi SSW 4.6 mph - N/A   Mostly Cloudy
1:30 AM 32.0 °F 27.5 °F 19.4 °F 60% 29.94 in 10.0 mi SW 4.6 mph - N/A   Overcast
1:50 AM 32.0 °F 25.6 °F 19.4 °F 60% 29.93 in 10.0 mi SW 6.9 mph - N/A   Overcast
2:10 AM 32.0 °F 24.8 °F 17.6 °F 55% 29.94 in 10.0 mi WSW 8.1 mph - N/A   Overcast
2:30 AM 32.0 °F 26.4 °F 17.6 °F 55% 29.93 in 10.0 mi WSW 5.8 mph - N/A   Overcast
2:50 AM 32.0 °F 24.8 °F 17.6 °F 55% 29.92 in 10.0 mi WSW 8.1 mph - N/A   Overcast
3:10 AM 32.0 °F 27.5 °F 17.6 °F 55% 29.92 in 10.0 mi WSW 4.6 mph - N/A   Overcast
3:30 AM 32.0 °F 26.4 °F 17.6 °F 55% 29.92 in 10.0 mi WSW 5.8 mph - N/A   Overcast
3:50 AM 32.0 °F 26.4 °F 17.6 °F 55% 29.91 in 10.0 mi West 5.8 mph - N/A   Overcast
4:10 AM 32.0 °F 24.8 °F 17.6 °F 55% 29.91 in 10.0 mi WSW 8.1 mph - N/A   Mostly Cloudy
4:30 AM 32.0 °F 25.6 °F 17.6 °F 55% 29.91 in 10.0 mi WSW 6.9 mph - N/A   Partly Cloudy
4:50 AM 30.2 °F 24.3 °F 17.6 °F 60% 29.91 in 10.0 mi WSW 5.8 mph - N/A   Clear
5:10 AM 32.0 °F 24.2 °F 17.6 °F 55% 29.92 in 10.0 mi WSW 9.2 mph - N/A   Mostly Cloudy
5:30 AM 32.0 °F 25.6 °F 17.6 °F 55% 29.92 in 10.0 mi West 6.9 mph - N/A   Overcast
5:50 AM 30.2 °F 25.4 °F 17.6 °F 60% 29.92 in 10.0 mi WSW 4.6 mph - N/A   Scattered Clouds
6:10 AM 30.2 °F 24.3 °F 17.6 °F 60% 29.93 in 10.0 mi WSW 5.8 mph - N/A   Partly Cloudy
6:30 AM 30.2 °F 25.4 °F 17.6 °F 60% 29.94 in 10.0 mi WSW 4.6 mph - N/A   Mostly Cloudy
6:50 AM 30.2 °F 25.4 °F 17.6 °F 60% 29.94 in 10.0 mi WSW 4.6 mph - N/A   Overcast
7:10 AM 30.2 °F 25.4 °F 17.6 °F 60% 29.93 in 10.0 mi West 4.6 mph - N/A   Mostly Cloudy
7:30 AM 32.0 °F 26.4 °F 17.6 °F 55% 29.93 in 10.0 mi WSW 5.8 mph - N/A   Mostly Cloudy
7:50 AM 32.0 °F 26.4 °F 19.4 °F 60% 29.94 in 10.0 mi West 5.8 mph - N/A   Mostly Cloudy
8:10 AM 32.0 °F 24.8 °F 19.4 °F 60% 29.94 in 10.0 mi West 8.1 mph - N/A   Mostly Cloudy
8:30 AM 32.0 °F 25.6 °F 19.4 °F 60% 29.94 in 10.0 mi West 6.9 mph - N/A   Scattered Clouds
8:50 AM 32.0 °F 26.4 °F 19.4 °F 60% 29.93 in 10.0 mi WSW 5.8 mph - N/A   Clear
9:10 AM 33.8 °F 27.0 °F 19.4 °F 56% 29.93 in 10.0 mi WSW 8.1 mph 16.1 mph N/A   Clear
9:30 AM 35.6 °F 26.6 °F 19.4 °F 52% 29.93 in 10.0 mi SW 13.8 mph 19.6 mph N/A   Clear
9:50 AM 35.6 °F 27.5 °F 19.4 °F 52% 29.93 in 10.0 mi WSW 11.5 mph 16.1 mph N/A   Clear
10:10 AM 37.4 °F 31.4 °F 19.4 °F 48% 29.93 in 10.0 mi WSW 8.1 mph 16.1 mph N/A   Clear
10:30 AM 37.4 °F 30.8 °F 19.4 °F 48% 29.93 in 10.0 mi WSW 9.2 mph 16.1 mph N/A   Clear
10:50 AM 39.2 °F 32.0 °F 19.4 °F 45% 29.93 in 10.0 mi WSW 11.5 mph 17.3 mph N/A   Clear
11:10 AM 39.2 °F 31.6 °F 19.4 °F 45% 29.93 in 10.0 mi SW 12.7 mph 16.1 mph N/A   Clear
11:30 AM 39.2 °F 31.6 °F 19.4 °F 45% 29.93 in 10.0 mi WSW 12.7 mph 19.6 mph N/A   Partly Cloudy
11:50 AM 39.2 °F 32.5 °F 19.4 °F 45% 29.92 in 10.0 mi WSW 10.4 mph 19.6 mph N/A   Mostly Cloudy
12:10 PM 39.2 °F 31.6 °F 19.4 °F 45% 29.92 in 10.0 mi WSW 12.7 mph 20.7 mph N/A   Overcast
12:30 PM 41.0 °F 34.7 °F 19.4 °F 42% 29.92 in 10.0 mi West 10.4 mph 17.3 mph N/A   Overcast
12:50 PM 41.0 °F 34.7 °F 19.4 °F 42% 29.91 in 10.0 mi West 10.4 mph - N/A   Overcast
1:10 PM 41.0 °F 35.2 °F 19.4 °F 42% 29.90 in 10.0 mi West 9.2 mph 18.4 mph N/A   Mostly Cloudy
1:30 PM 41.0 °F 35.8 °F 19.4 °F 42% 29.90 in 10.0 mi WSW 8.1 mph 16.1 mph N/A   Mostly Cloudy
1:50 PM 41.0 °F 35.2 °F 17.6 °F 39% 29.89 in 10.0 mi West 9.2 mph 17.3 mph N/A   Mostly Cloudy
2:10 PM 41.0 °F 35.8 °F 17.6 °F 39% 29.89 in 10.0 mi West 8.1 mph 20.7 mph N/A   Scattered Clouds
2:30 PM 41.0 °F 33.9 °F 17.6 °F 39% 29.88 in 10.0 mi WNW 12.7 mph 18.4 mph N/A   Partly Cloudy
2:50 PM 42.8 °F 36.6 °F 19.4 °F 39% 29.88 in 10.0 mi West 11.5 mph 17.3 mph N/A   Scattered Clouds
3:10 PM 42.8 °F 37.5 °F 19.4 °F 39% 29.88 in 10.0 mi WNW 9.2 mph 18.4 mph N/A   Partly Cloudy
3:30 PM 44.6 °F 38.8 °F 19.4 °F 37% 29.88 in 10.0 mi West 11.5 mph 16.1 mph N/A   Scattered Clouds
3:50 PM 44.6 °F 38.4 °F 19.4 °F 37% 29.87 in 10.0 mi West 12.7 mph 20.7 mph N/A   Scattered Clouds
4:10 PM 44.6 °F 38.4 °F 19.4 °F 37% 29.88 in 10.0 mi West 12.7 mph 18.4 mph N/A   Partly Cloudy
4:30 PM 44.6 °F 38.4 °F 19.4 °F 37% 29.88 in 10.0 mi West 12.7 mph 19.6 mph N/A   Mostly Cloudy
4:50 PM 42.8 °F 37.0 °F 19.4 °F 39% 29.88 in 10.0 mi West 10.4 mph 19.6 mph N/A   Scattered Clouds
5:10 PM 44.6 °F 38.8 °F 17.6 °F 34% 29.87 in 10.0 mi NW 11.5 mph 19.6 mph N/A   Scattered Clouds
5:30 PM 44.6 °F 38.8 °F 17.6 °F 34% 29.88 in 10.0 mi West 11.5 mph 18.4 mph N/A   Partly Cloudy
5:50 PM 42.8 °F 35.8 °F 17.6 °F 36% 29.88 in 10.0 mi West 13.8 mph 17.3 mph N/A   Clear
6:10 PM 42.8 °F 38.0 °F 17.6 °F 36% 29.89 in 10.0 mi West 8.1 mph 17.3 mph N/A   Clear
6:30 PM 42.8 °F 37.0 °F 17.6 °F 36% 29.89 in 10.0 mi WSW 10.4 mph 19.6 mph N/A   Mostly Cloudy
6:50 PM 41.0 °F 35.8 °F 17.6 °F 39% 29.90 in 10.0 mi WSW 8.1 mph 21.9 mph N/A   Partly Cloudy
7:10 PM 39.2 °F 33.0 °F 17.6 °F 42% 29.91 in 10.0 mi West 9.2 mph - N/A   Clear
7:30 PM 39.2 °F 33.0 °F 17.6 °F 42% 29.92 in 10.0 mi West 9.2 mph - N/A   Clear
7:50 PM 39.2 °F 34.2 °F 17.6 °F 42% 29.92 in 10.0 mi West 6.9 mph - N/A   Clear
8:10 PM 39.2 °F 33.6 °F 17.6 °F 42% 29.93 in 10.0 mi West 8.1 mph - N/A   Scattered Clouds
8:30 PM 37.4 °F 32.1 °F 17.6 °F 45% 29.93 in 10.0 mi West 6.9 mph - N/A   Partly Cloudy
8:50 PM 37.4 °F 33.8 °F 17.6 °F 45% 29.93 in 10.0 mi West 4.6 mph - N/A   Clear
8:55 PM 37.4 °F 33.8 °F 17.6 °F 45% 29.93 in 10.0 mi WNW 4.6 mph - N/A   Clear